Location: Unspecified
(0.0000°N, 0.0000°E)
Time: 18:30:57
(UTC+00:00)

DMSP B5D2-5 - Pass Details

Date: 09 June 2023
Orbit: 711 x 814 km, 98.7° (Epoch: 29 September)

Event Time Altitude Azimuth Distance (km) Brightness Sun altitude
Exits shadow 20:25:13 12° 229° (SW) 2,041 7.4 -33.2°
Maximum altitude 20:27:15 15° 257° (WSW) 1,850 7.4 -33.6°
Drops below altitude 10° 20:30:02 10° 293° (WNW) 2,203 8.2 -34.3°
Sets 20:33:13 0° 315° (NW) 3,136 9.1 -35.0°
